Location: Bocianicha
(51.5066°N, 19.2563°E)
Time: 13:50:22
(UTC+00:00)

Timation 1 Rocket - Pass Details

Date: 15 June 2025
Orbit: 895 x 909 km, 70.0° (Epoch: 18 July)

Event Time Altitude Azimuth Distance (km) Brightness Sun altitude
Rises 00:59:18 0° 326° (NW) 3,549 7.8 -9.5°
Reaches altitude 10° 01:01:49 10° 324° (NW) 2,604 7.1 -9.3°
Maximum altitude 01:07:48 69° 243° (WSW) 975 4.4 -8.8°
Drops below altitude 10° 01:13:44 10° 162° (SSE) 2,587 6.4 -8.2°
Sets 01:16:14 0° 160° (SSE) 3,523 7.1 -8.0°
